User: anonymous   Login
Location: Theydon Bois
(51.6750°N, 0.1050°E)
Time: 12:45:42
(UTC+01:00)
Language:

Meteor 2-21 - Orbit

View from above orbital plane
View from above orbital plane
View from above satellite
View from above satellite

Ground track
Ground track

The orbit data is extracted from the following two-line orbital elements,

1 22782U 93055A   17296.14403764  .00000018  00000-0  30828-5 0  9992
2 22782  82.5460 282.0328 0023699  73.1749 335.5663 13.83802849219394
Epoch (UTC): 23 October 2017 03:27:24
Eccentricity: 0.0023699
inclination: 82.5460°
perigee height: 933 km
apogee height: 968 km
right ascension of ascending node: 282.0328°
argument of perigee: 73.1749°
revolutions per day: 13.83802849
mean anomaly at epoch: 335.5663°
orbit number at epoch: 21939

The dashed part of the orbit path shows where the satellite is in the earth's shadow,  

DLR